Weather History for Kimball, NE

Change the Weather History Date:

Wednesday, January 9, 2013

  Actual Average (KSNY) Record (KSNY)
Temperature  
Mean Temperature 38 °F 29 °F  
Max Temperature 54 °F 42 °F 60 °F (1990)
Min Temperature 23 °F 16 °F -18 °F (1974)
Degree Days  
Heating Degree Days 26 36  
Since 1 July heating degree days 2871  
Moisture  
Dew Point 20 °F    
Average Humidity 54    
Maximum Humidity 74    
Minimum Humidity 23    
Precipitation  
Precipitation 0.00 in 0.01 in 0.50 in (1993)
Month to date precipitation 0.07  
Year to date precipitation 0.07  
Sea Level Pressure  
Sea Level Pressure 30.15 in    
Wind  
Wind Speed 12 mph (SSW)    
Max Wind Speed 22 mph    
Max Gust Speed 25 mph    
Visibility 10 miles    
Events      
T = Trace of Precipitation, MM = Missing Value Source: NWS Daily Summary

Daily Weather History Graph

Daily Weather History Graph

Search for Another Location

Airport:

Trip Planner

Search our weather history database for the weather conditions in past years. The results will help you decide how hot, cold, wet, or windy it might be!

Date:

Astronomy

Jan. 09, 2013 Rise Set
Actual Time 8:19 AM CST 5:44 PM CST
Civil Twilight 7:49 AM CST 6:15 PM CST
Nautical Twilight 7:14 AM CST 6:49 PM CST
Astronomical Twilight 6:41 AM CST 7:22 PM CST
Moon 6:01 AM CST (1/9) 3:48 PM CST (1/9)
Length of Visible Light 10h 26m
Length of Day
9h 24m
Waning Crescent, 6% of the Moon is Illuminated
Jan 9
Waning Crescent
Jan 11
New
Jan 18
First Quarter
Jan 26
Full
Feb 3
Last Quarter

Hourly Weather History & Observations

Time (CST) Temp. Windchill Dew Point Humidity Pressure Visibility Wind Dir Wind Speed Gust Speed Precip Events Conditions
12:15 AM 30.9 °F 20.2 °F 18.9 °F 61% 30.19 in 10.0 mi West 15.0 mph - N/A   Clear
12:35 AM 31.6 °F 21.6 °F 18.9 °F 59% 30.19 in 10.0 mi West 13.8 mph - N/A   Clear
12:55 AM 31.3 °F 20.7 °F 18.7 °F 60% 30.19 in 10.0 mi WNW 15.0 mph - N/A   Clear
1:15 AM 32.9 °F 23.2 °F 18.5 °F 55% 30.20 in 10.0 mi WNW 13.8 mph - N/A   Clear
1:35 AM 31.5 °F 21.8 °F 18.3 °F 58% 30.20 in 10.0 mi WNW 12.7 mph - N/A   Clear
1:55 AM 30.0 °F 20.5 °F 18.3 °F 62% 30.20 in 10.0 mi WNW 11.5 mph - N/A   Clear
2:15 AM 27.0 °F 19.5 °F 17.2 °F 67% 30.20 in 10.0 mi NW 6.9 mph - N/A   Clear
2:35 AM 25.5 °F 18.7 °F 17.1 °F 70% 30.21 in 10.0 mi West 5.8 mph - N/A   Clear
2:55 AM 24.3 °F 14.6 °F 16.7 °F 73% 30.20 in 10.0 mi WSW 9.2 mph - N/A   Clear
3:15 AM 25.7 °F 14.6 °F 16.9 °F 69% 30.20 in 10.0 mi West 12.7 mph - N/A   Clear
3:35 AM 23.9 °F 13.5 °F 16.3 °F 73% 30.21 in 10.0 mi WSW 10.4 mph - N/A   Clear
3:55 AM 25.3 °F 16.0 °F 16.3 °F 69% 30.21 in 10.0 mi WSW 9.2 mph - N/A   Clear
4:15 AM 24.3 °F 13.3 °F 16.5 °F 72% 30.20 in 10.0 mi West 11.5 mph - N/A   Clear
4:35 AM 25.0 °F 15.5 °F 16.7 °F 71% 30.20 in 10.0 mi West 9.2 mph - N/A   Clear
4:55 AM 25.3 °F 15.3 °F 17.1 °F 71% 30.19 in 10.0 mi West 10.4 mph - N/A   Clear
5:15 AM 29.1 °F 19.4 °F 17.4 °F 62% 30.18 in 10.0 mi WSW 11.5 mph - N/A   Clear
5:35 AM 27.3 °F 17.7 °F 17.2 °F 66% 30.18 in 10.0 mi West 10.4 mph - N/A   Clear
5:55 AM 28.9 °F 17.3 °F 18.0 °F 64% 30.16 in 10.0 mi WNW 16.1 mph - N/A   Clear
6:15 AM 29.8 °F 19.8 °F 17.4 °F 60% 30.17 in 10.0 mi WNW 12.7 mph - N/A   Clear
6:35 AM 29.3 °F 19.6 °F 18.3 °F 64% 30.17 in 10.0 mi West 11.5 mph - N/A   Clear
6:55 AM 27.5 °F 18.0 °F 18.1 °F 68% 30.18 in 10.0 mi WSW 10.4 mph - N/A   Clear
7:15 AM 30.2 °F 24.3 °F 19.2 °F 64% 30.19 in 10.0 mi West 5.8 mph - N/A   Clear
7:35 AM 30.6 °F 25.8 °F 19.2 °F 63% 30.20 in 10.0 mi SSE 4.6 mph - N/A   Clear
7:55 AM 30.4 °F 21.5 °F 19.0 °F 63% 30.21 in 10.0 mi West 10.4 mph - N/A   Clear
8:35 AM 30.7 °F 23.3 °F 18.5 °F 60% 30.22 in 10.0 mi WSW 8.1 mph - N/A   Clear
8:55 AM 27.9 °F 22.6 °F 18.3 °F 67% 30.23 in 10.0 mi SSW 4.6 mph - N/A   Clear
9:15 AM 31.1 °F 21.9 °F 18.9 °F 61% 30.24 in 10.0 mi SSW 11.5 mph - N/A   Clear
9:35 AM 33.4 °F 24.8 °F 19.9 °F 58% 30.24 in 10.0 mi SSW 11.5 mph - N/A   Clear
9:55 AM 36.5 °F 29.7 °F 20.5 °F 52% 30.26 in 10.0 mi South 9.2 mph - N/A   Clear
10:15 AM 39.4 °F 33.2 °F 21.0 °F 48% 30.25 in 10.0 mi South 9.2 mph - N/A   Clear
10:35 AM 42.6 °F 34.9 °F 20.3 °F 41% 30.25 in 10.0 mi South 16.1 mph - N/A   Clear
10:55 AM 44.1 °F 37.4 °F 19.8 °F 38% 30.25 in 10.0 mi SSW 13.8 mph 20.7 mph N/A   Clear
11:15 AM 45.1 °F 37.9 °F 18.7 °F 35% 30.26 in 10.0 mi South 17.3 mph - N/A   Clear
11:55 AM 46.4 °F 39.2 °F 17.4 °F 31% 30.23 in 10.0 mi SSW 18.4 mph 23.0 mph N/A   Clear
12:15 PM 48.9 °F - 17.6 °F 29% 30.22 in 10.0 mi SSW 17.3 mph 23.0 mph N/A   Clear
12:35 PM 50.5 °F - 17.1 °F 27% 30.21 in 10.0 mi SSW 21.9 mph - N/A   Clear
12:55 PM 51.1 °F - 16.3 °F 25% 30.20 in 10.0 mi SSW 19.6 mph 25.3 mph N/A   Clear
1:15 PM 51.1 °F - 17.4 °F 26% 30.18 in 10.0 mi SSW 16.1 mph - N/A   Clear
1:35 PM 52.7 °F - 16.0 °F 23% 30.17 in 10.0 mi SSW 20.7 mph 24.2 mph N/A   Clear
1:55 PM 53.2 °F - 16.5 °F 24% 30.17 in 10.0 mi SSW 16.1 mph 21.9 mph N/A   Clear
2:15 PM 52.7 °F - 16.3 °F 24% 30.16 in 10.0 mi SSW 18.4 mph 21.9 mph N/A   Clear
2:35 PM 53.2 °F - 16.7 °F 24% 30.16 in 10.0 mi South 16.1 mph 23.0 mph N/A   Clear
2:55 PM 54.0 °F - 16.5 °F 23% 30.15 in 10.0 mi South 15.0 mph - N/A   Clear
3:15 PM 54.1 °F - 16.5 °F 23% 30.14 in 10.0 mi South 17.3 mph 21.9 mph N/A   Clear
3:35 PM 54.5 °F - 18.1 °F 24% 30.13 in 10.0 mi SSW 15.0 mph 20.7 mph N/A   Clear
3:55 PM 54.1 °F - 19.0 °F 25% 30.13 in 10.0 mi South 15.0 mph - N/A   Clear
4:15 PM 54.5 °F - 19.4 °F 25% 30.12 in 10.0 mi South 11.5 mph - N/A   Clear
4:35 PM 54.0 °F - 18.7 °F 25% 30.11 in 10.0 mi South 13.8 mph - N/A   Clear
4:55 PM 52.5 °F - 19.2 °F 27% 30.10 in 10.0 mi South 13.8 mph 17.3 mph N/A   Clear
5:15 PM 47.7 °F - 25.2 °F 41% 30.10 in 10.0 mi SSE 13.8 mph - N/A   Clear
5:35 PM 43.9 °F 37.2 °F 25.7 °F 49% 30.10 in 10.0 mi SSE 13.8 mph - N/A   Clear
5:55 PM 39.7 °F 32.7 °F 25.2 °F 56% 30.10 in 10.0 mi SE 11.5 mph - N/A   Clear
6:15 PM 37.8 °F 30.7 °F 24.6 °F 59% 30.09 in 10.0 mi SSE 10.4 mph - N/A   Clear
6:35 PM 37.4 °F 31.4 °F 24.4 °F 60% 30.08 in 10.0 mi SSE 8.1 mph - N/A   Clear
6:55 PM 37.2 °F 30.6 °F 24.6 °F 60% 30.08 in 10.0 mi SSE 9.2 mph - N/A   Clear
7:15 PM 35.6 °F 27.5 °F 24.6 °F 64% 30.08 in 10.0 mi SSE 11.5 mph - N/A   Clear
7:35 PM 34.0 °F 26.6 °F 24.6 °F 69% 30.08 in 10.0 mi SSE 9.2 mph - N/A   Clear
7:55 PM 32.5 °F 25.5 °F 23.9 °F 70% 30.06 in 10.0 mi SSE 8.1 mph - N/A   Clear
8:15 PM 32.4 °F 24.6 °F 23.9 °F 71% 30.06 in 10.0 mi SSE 9.2 mph - N/A   Clear
8:35 PM 32.2 °F 23.8 °F 23.9 °F 72% 30.05 in 10.0 mi South 10.4 mph - N/A   Clear
8:55 PM 32.4 °F 23.5 °F 23.9 °F 71% 30.05 in 10.0 mi South 11.5 mph - N/A   Clear
9:15 PM 32.2 °F 23.8 °F 23.4 °F 70% 30.05 in 10.0 mi South 10.4 mph - N/A   Clear
9:35 PM 31.6 °F 25.1 °F 23.0 °F 70% 30.05 in 10.0 mi South 6.9 mph - N/A   Clear
9:55 PM 31.1 °F 21.9 °F 23.5 °F 74% 30.04 in 10.0 mi South 11.5 mph - N/A   Clear
10:15 PM 31.5 °F 22.3 °F 22.8 °F 70% 30.02 in 10.0 mi South 11.5 mph - N/A   Clear
10:35 PM 29.8 °F 23.0 °F 22.1 °F 73% 30.02 in 10.0 mi South 6.9 mph - N/A   Clear
10:55 PM 30.0 °F 23.2 °F 21.7 °F 71% 30.02 in 10.0 mi South 6.9 mph - N/A   Clear
11:15 PM 30.7 °F 20.9 °F 21.7 °F 69% 30.01 in 10.0 mi South 12.7 mph - N/A   Clear
11:35 PM 31.1 °F 20.9 °F 21.2 °F 67% 30.01 in 10.0 mi South 13.8 mph - N/A   Clear
11:55 PM 31.1 °F 20.9 °F 21.0 °F 66% 30.01 in 10.0 mi South 13.8 mph - N/A   Clear